Find Starlink 31468

NORAD ID: 58998 Int'l Des: 2024-036 Owner: SPXS Country: US Constellation: starlink operational
LEOCIRCULAR

当前视图

正在加载3D地球...

About Starlink 31468

Starlink 31468 (NORAD 58998) is a starlink constellation satellite (v2 mini) launched Feb 23, 2024 by SPXS of US. It operates in LEO, CIRCULAR orbit with a mass of 730.00 kg.

关于 Starlink 31468

正在加载描述...

即将过境

Passes for default location (London). Set your location on the main map for personalized predictions.

高度历史

Loading altitude history...

两行轨道根数

1 58998U 24036A 26171.14485968 .00001283 00000-0 55440-4 0 9992
2 58998 53.1623 321.9509 0001332 97.2687 262.8465 15.30196374131027
Epoch: Jun 20, 2026 • Age: 28 hours

当前状态

高度 491.8 km
速度 7.62 km/s
星下点 -46.54°S, 171.07°E
发射日期 Feb 23, 2024
运行时间 2.3 years
类型 internet

技术详情

分类 Payload
质量 730.00 kg
干质量 700.00 kg
总质量 730.00 kg
长度 0.30 m
直径 4.10 m
跨度 29.00 m
形状 Box + pan
制造商 SPXS
平台类型 Starlink V2M
阶段状态 In Orbit
所有者/国家 SPXS/US

Most Searched